Content
SEND FEEDBACK

Daily
Averages
Monthly
Summary
French Polynesia

FAAA, FRENCH POLYNESIA


Home > Oceania > French Polynesia
Elevation: 7 feet     Latitude: 17 33S     Longitude: 149 37W

WEATHER
 
SELECT A DAY
Number of Records: 213,109;   Date Range: 6/30/96 - 9/30/14
 
SHARE

PRINT THIS DATA

[ ← Previous Day ]
WEATHER ALMANAC - FEBRUARY 14, 2013
[ Next Day → ]
[ °C ]   °F
Weather ElementAverageHighLow
Temperature80.8 °F87 °F (2:00 pm)75.2 °F (2:00 am)
Dewpoint72.8 °F76 °F (5:00 pm)71 °F (11:00 am)
Humidity76.3 %89 % (12:30 am)53 % (11:00 am)
Barometer29.84 in29.90 in (11:00 pm)29.80 in (2:36 am)
Wind Speed4 mph11.5 mph (3:30 pm)
Weather ElementAverage
Visibility7.5 mi
Wind DirectionSE (139.3 °)

Weather ElementTotal
Precipitation---
Cooling Degree Days16.1 (Base 65)
Growing Degree Days31.1 (Base 50)
Averaged from 56 records on February 14, 2013
WEATHER CONDITIONS BREAKOUT
WIND DIRECTION BREAKOUT
WEATHER BY HOUR - FEBRUARY 14, 2013
[ °C ]   °F
Local TimeTemperatureDewpointHumidityBarometerVisibilityWind DirectionWind SpeedGust SpeedPrecipitationEventsConditions
12:30 AM77.0 °F73.4 °F89 %29.86 in6.2 miSSE (160°)3.5 mphPartly Cloudy
1:00 AM77.0 °F71.6 °F83 %29.83 in6.2 miEast (100°)2.3 mphPartly Cloudy
1:30 AM77.0 °F73.4 °F89 %29.83 in6.2 miVariable1.2 mphPartly Cloudy
2:00 AM76.0 °F72.0 °F83 %29.83 in9.0 miEast (100°)3.5 mphPartly Cloudy
2:00 AM75.2 °F71.6 °F89 %29.83 in6.2 miEast (100°)3.5 mphPartly Cloudy
2:36 AM77.0 °F71.6 °F83 %29.80 in6.2 miCalmPartly Cloudy
3:00 AM77.0 °F71.6 °F83 %29.80 in6.2 miCalmPartly Cloudy
3:30 AM77.0 °F71.6 °F83 %29.80 in6.2 miEast (100°)1.2 mphOvercast
4:00 AM77.0 °F71.6 °F83 %29.80 in6.2 miVariable2.3 mphOvercast
4:30 AM77.0 °F71.6 °F83 %29.80 in6.2 miVariable2.3 mphOvercast
5:00 AM78.0 °F72.0 °F77 %29.83 in37.0 miSouth (190°)2.3 mphClear
5:00 AM77.0 °F71.6 °F83 %29.83 in6.2 miVariable2.3 mphOvercast
5:30 AM77.0 °F71.6 °F83 %29.83 in6.2 miVariable3.5 mphMostly Cloudy
6:00 AM77.0 °F71.6 °F83 %29.83 in6.2 miVariable3.5 mphMostly Cloudy
6:30 AM77.0 °F73.4 °F89 %29.83 in6.2 miEast (90°)2.3 mphMostly Cloudy
7:00 AM80.6 °F73.4 °F79 %29.86 in6.2 miVariable2.3 mphScattered Clouds
7:30 AM80.6 °F71.6 °F74 %29.86 in6.2 miVariable2.3 mphScattered Clouds
8:00 AM82.0 °F72.0 °F65 %29.87 in19.0 miWest (260°)2.2 mphPartly Cloudy
8:00 AM82.4 °F71.6 °F70 %29.86 in6.2 miVariable1.2 mphScattered Clouds
8:30 AM82.4 °F71.6 °F70 %29.86 in6.2 miVariable1.2 mphScattered Clouds
9:00 AM84.2 °F71.6 °F66 %29.86 in6.2 miWNW (300°)4.6 mphScattered Clouds
9:30 AM84.2 °F71.6 °F66 %29.86 in6.2 miWest (280°)3.5 mphScattered Clouds
10:00 AM84.2 °F71.6 °F66 %29.86 in6.2 miWest (260°)3.5 mphScattered Clouds
10:11 AM86.0 °F73.4 °F66 %29.86 in6.2 miVariable2.3 mphScattered Clouds
10:30 AM86.0 °F71.6 °F62 %29.86 in6.2 miWNW (300°)3.5 mphScattered Clouds
11:00 AM86.0 °F71.0 °F53 %29.87 in19.0 miNNE (20°)5.8 mphPartly Cloudy
11:00 AM86.0 °F71.6 °F62 %29.86 in6.2 miNNE (20°)5.8 mphScattered Clouds
11:30 AM86.0 °F73.4 °F66 %29.86 in6.2 miNorth (360°)5.8 mphScattered Clouds
12:00 PM86.0 °F73.4 °F66 %29.83 in6.2 miNorth (360°)6.9 mphPartly Cloudy
12:30 PM86.0 °F71.6 °F62 %29.83 in6.2 miNorth (350°)5.8 mphPartly Cloudy
1:00 PM86.0 °F73.4 °F66 %29.83 in6.2 miNorth (350°)4.6 mphScattered Clouds
1:30 PM86.0 °F73.4 °F66 %29.80 in6.2 miNNW (340°)4.6 mphScattered Clouds
2:00 PM87.0 °F73.0 °F54 %29.82 in9.0 miNorth (10°)5.8 mphPartly Cloudy
2:00 PM86.0 °F73.4 °F66 %29.80 in6.2 miNorth (10°)5.8 mphScattered Clouds
2:30 PM84.2 °F73.4 °F70 %29.80 in6.2 miNorth (10°)6.9 mphScattered Clouds
3:00 PM82.4 °F73.4 °F74 %29.80 in6.2 miWest (260°)9.2 mphScattered Clouds
3:30 PM80.6 °F73.4 °F79 %29.80 in6.2 miWNW (290°)11.5 mphRainLight Rain Showers
4:00 PM80.6 °F75.2 °F84 %29.80 in6.2 miWest (270°)3.5 mphMostly Cloudy
4:30 PM82.4 °F73.4 °F74 %29.80 in6.2 miNNW (340°)5.8 mphMostly Cloudy
5:00 PM81.0 °F76.0 °F80 %29.84 in7.0 miNNW (340°)9.2 mphRainLight Rain Showers
5:00 PM80.6 °F75.2 °F84 %29.83 in6.2 miNNW (340°)9.2 mphMostly Cloudy
5:30 PM80.6 °F75.2 °F84 %29.83 in6.2 miNorth (360°)5.8 mphMostly Cloudy
6:00 PM80.6 °F75.2 °F84 %29.83 in6.2 miNNW (330°)3.5 mphMostly Cloudy
6:30 PM80.6 °F73.4 °F79 %29.86 in6.2 miVariable3.5 mphMostly Cloudy
7:00 PM80.6 °F73.4 °F79 %29.86 in6.2 miENE (70°)3.5 mphMostly Cloudy
7:30 PM78.8 °F73.4 °F83 %29.86 in6.2 miVariable3.5 mphMostly Cloudy
8:00 PM79.0 °F73.0 °F77 %29.88 in12.0 miEast (90°)3.5 mphPartly Cloudy
8:00 PM78.8 °F73.4 °F83 %29.86 in6.2 miEast (90°)3.5 mphScattered Clouds
8:30 PM78.8 °F73.4 °F83 %29.89 in6.2 miEast (80°)2.3 mphScattered Clouds
9:00 PM78.8 °F73.4 °F83 %29.89 in6.2 miEast (90°)3.5 mphScattered Clouds
9:30 PM78.8 °F73.4 °F83 %29.89 in6.2 miESE (110°)3.5 mphScattered Clouds
10:00 PM78.8 °F73.4 °F83 %29.89 in6.2 miSE (140°)2.3 mphScattered Clouds
10:30 PM78.8 °F73.4 °F83 %29.89 in6.2 miSouth (190°)8.1 mphScattered Clouds
11:00 PM79.0 °F72.0 °F75 %29.90 in12.0 miSouth (170°)4.6 mphPartly Cloudy
11:00 PM78.8 °F73.4 °F83 %29.89 in6.2 miSouth (170°)4.6 mphPartly Cloudy
11:30 PM78.8 °F71.6 °F78 %29.89 in6.2 miCalmPartly Cloudy
Hourly data recorded from NTAA, located miles away from Faaa, French Polynesia







STORIES FROM OUR PARTNERS